Location: Newark
(47.5833°N, 8.1500°E)
Time: 13:38:08
(UTC+00:00)

Vanguard 3 - All Passes

Search period start: 31 October 2020 00:00
Search period end: 10 November 2020 00:00
Orbit: 507 x 3263 km, 33.4° (Epoch: 30 October)

Date Brightness Start Highest point End Pass type
(mag) Time Alt. Az. Time Alt. Az. Time Alt. Az.
31 Oct - 01:14:06 10° SSE 01:19:37 13° SE 01:25:46 10° ESE visible
31 Oct - 03:17:46 10° SSW 03:31:15 35° SSE 03:47:42 10° E visible
31 Oct - 05:28:31 10° WSW 05:45:28 50° S 06:03:24 10° ESE visible
31 Oct - 07:42:24 10° W 08:00:36 48° SSW 08:16:27 10° SE daylight
31 Oct - 09:59:02 10° W 10:14:11 30° SW 10:26:09 10° SSE daylight
01 Nov - 02:05:34 10° S 02:16:15 24° SE 02:29:38 10° E visible
01 Nov - 04:14:07 10° SW 04:29:13 45° SSE 04:47:11 10° E visible
01 Nov - 06:26:31 10° WSW 06:44:11 51° S 07:01:40 10° ESE daylight
01 Nov - 08:41:33 10° W 08:58:50 40° SSW 09:13:17 10° SE daylight
01 Nov - 11:00:45 10° W 11:11:07 18° SW 11:19:50 10° SSW daylight
02 Nov - 00:55:54 10° SSE 01:02:01 14° SE 01:09:08 10° ESE visible
02 Nov - 03:00:40 10° SSW 03:13:32 36° SSE 03:30:08 10° E visible
02 Nov - 05:11:25 10° WSW 05:27:40 51° S 05:46:03 10° ESE visible
02 Nov - 07:25:03 10° W 07:42:49 47° SSW 07:59:18 10° SE daylight
02 Nov - 09:41:34 10° W 09:56:26 28° SW 10:08:52 10° SSE daylight
03 Nov - 01:48:23 10° S 01:58:38 26° SE 02:12:05 10° E visible
03 Nov - 03:57:08 10° SW 04:11:28 46° SSE 04:29:37 10° E visible
03 Nov - 06:09:22 10° WSW 06:26:23 51° S 06:44:21 10° ESE daylight
03 Nov - 08:24:10 10° W 08:41:02 38° SSW 08:56:02 10° SSE daylight
03 Nov - 10:43:47 10° W 10:53:24 16° SW 11:01:52 10° SSW daylight
04 Nov - 00:38:14 10° SSE 00:44:31 15° SE 00:52:06 10° ESE visible
04 Nov - 02:43:45 10° SSW 02:55:54 37° SSE 03:12:26 10° E visible
04 Nov - 04:54:28 10° WSW 05:09:55 51° S 05:28:32 10° ESE visible
04 Nov - 07:07:51 10° W 07:25:00 45° SSW 07:41:57 10° SE daylight
04 Nov - 09:24:16 10° W 09:38:39 26° SW 09:51:19 10° S daylight
05 Nov - 01:31:25 10° SSW 01:41:06 27° SE 01:54:24 10° E visible
05 Nov - 03:40:20 10° SW 03:53:50 46° SSE 04:11:55 10° E visible
05 Nov - 05:52:22 10° WSW 06:08:36 50° S 06:26:52 10° ESE daylight
05 Nov - 08:06:56 10° W 08:23:11 36° SSW 08:38:32 10° SSE daylight
05 Nov - 10:27:14 10° WSW 10:35:39 14° SW 10:43:23 10° SSW daylight
06 Nov - 00:20:55 10° SSE 00:27:07 16° SE 00:34:51 10° E visible
06 Nov - 02:27:01 10° SW 02:38:22 38° SSE 02:54:38 10° E visible
06 Nov - 04:37:40 10° WSW 04:52:15 50° S 05:10:52 10° ESE visible
06 Nov - 06:50:48 10° W 07:07:09 43° SSW 07:24:24 10° SE daylight
06 Nov - 09:07:12 10° W 09:20:49 24° SW 09:33:27 10° S daylight
07 Nov - 01:14:39 10° SSW 01:23:43 28° SE 01:36:38 10° E visible
07 Nov - 03:23:41 10° SW 03:36:17 46° SSE 03:54:06 10° ESE visible
07 Nov - 05:35:32 10° WSW 05:50:52 48° S 06:09:12 10° SE visible
07 Nov - 07:49:53 10° W 08:05:20 33° SSW 08:20:48 10° SSE daylight
07 Nov - 10:11:24 10° WSW 10:17:52 13° SW 10:24:04 10° SSW daylight
08 Nov - 00:03:54 10° SSE 00:09:50 16° SE 00:17:27 10° E visible
08 Nov - 02:10:26 10° SW 02:21:00 39° SSE 02:36:44 10° E visible
08 Nov - 04:21:00 10° WSW 04:34:39 49° S 04:53:04 10° ESE visible
08 Nov - 06:33:54 10° W 06:49:22 41° SSW 07:06:40 10° SE daylight
08 Nov - 08:50:24 10° W 09:02:58 22° SW 09:15:14 10° S daylight
09 Nov - 00:58:03 10° SSW 01:06:27 28° SE 01:18:50 10° E visible
09 Nov - 03:07:10 10° WSW 03:18:52 46° S 03:36:11 10° ESE visible
09 Nov - 05:18:50 10° WSW 05:33:12 46° SSW 05:51:21 10° SE visible
09 Nov - 07:33:03 10° W 07:47:30 30° SSW 08:02:47 10° SSE daylight
09 Nov - 09:57:42 10° WSW 10:00:06 10° SW 10:02:28 10° SW daylight
